sat.trackr.live / text

‹ back to catalog

STARLINK-3159

NORAD 49415 · 2021-104H

PAYLOAD ACTIVE UNKNOWN

§ Identity

Operator
Country
US
Launch date
2021-11-13
Launch site
AFETR
Launch vehicle
Mass (kg)
RCS (m²)

Purposes: comms

External: N2YO · Heavens-Above · Gunter

§ Orbital elements

Epoch: 2026-05-25T05:06:23.355648Z

Period
95.44 min
Inclination
53.2136°
Eccentricity
0.0001053
Mean motion
15.08833548 rev/d
Perigee alt
539.0 km
Apogee alt
540.5 km
Semi-major
6,917.9 km
B*
2.1074e-5
RAAN
235.5965°
Arg perigee
85.0291°
Mean anomaly
275.0821°
Rev number
25,031

§ Raw data

STARLINK-31591 49415U 21104H   26145.21277032  .00000048  00000+0  21074-4 0  99922 49415  53.2136 235.5965 0001053  85.0291 275.0821 15.08833548250315

JSON: /api/v1/satellites/49415 · /tle

For live sub-satellite position, see the globe view (requires WebGL).

§ Visibility from observer

Set your observer location to see the next 7 days of passes ≥ 10°. The values pass through the URL so the page stays shareable.

No JS? Fill the form by hand. The geolocation button needs JavaScript.